Weather History for Martha's Vineyard, MA

Change the Weather History Date:

Friday, February 8, 2013

  Actual Average Record
Temperature  
Mean Temperature 31 °F -  
Max Temperature 34 °F 36 °F 54 °F (2009)
Min Temperature 28 °F 20 °F 1 °F (1961)
Degree Days  
Heating Degree Days 34    
Moisture  
Dew Point 30 °F    
Average Humidity 91    
Maximum Humidity 100    
Minimum Humidity 75    
Precipitation  
Precipitation 1.18 in - - ()
Sea Level Pressure  
Sea Level Pressure 29.94 in    
Wind  
Wind Speed 19 mph (ENE)    
Max Wind Speed 41 mph    
Max Gust Speed 56 mph    
Visibility 4 miles    
Events Fog , Snow    
Averages and records for this station are not official NWS values.
T = Trace of Precipitation, MM = Missing Value Source: NWS Daily Summary

Daily Weather History Graph

Daily Weather History Graph

Search for Another Location

Airport:

Trip Planner

Search our weather history database for the weather conditions in past years. The results will help you decide how hot, cold, wet, or windy it might be!

Date:

Astronomy

Feb. 08, 2013 Rise Set
Actual Time 6:46 AM EST 5:07 PM EST
Civil Twilight 6:17 AM EST 5:36 PM EST
Nautical Twilight 5:44 AM EST 6:09 PM EST
Astronomical Twilight 5:12 AM EST 6:41 PM EST
Moon 5:12 AM EST (2/8) 3:37 PM EST (2/8)
Length of Visible Light 11h 19m
Length of Day
10h 21m
Waning Crescent, 3% of the Moon is Illuminated
Feb 8
Waning Crescent
Feb 10
New
Feb 17
First Quarter
Feb 25
Full
Mar 4
Last Quarter

Hourly Weather History & Observations

Time (EST) Temp. Windchill Dew Point Humidity Pressure Visibility Wind Dir Wind Speed Gust Speed Precip Events Conditions
12:36 AM 28.4 °F 23.3 °F 24.8 °F 86% 30.44 in 10.0 mi ENE 4.6 mph - N/A   Overcast
12:53 AM 30.0 °F 23.2 °F 25.0 °F 82% 30.43 in 10.0 mi East 6.9 mph - N/A   Overcast
1:53 AM 32.0 °F 23.6 °F 26.1 °F 79% 30.40 in 10.0 mi East 10.4 mph - N/A   Overcast
2:53 AM 32.0 °F 22.1 °F 26.1 °F 79% 30.37 in 10.0 mi East 13.8 mph 20.7 mph N/A   Overcast
3:53 AM 32.0 °F 22.1 °F 25.0 °F 75% 30.35 in 10.0 mi East 13.8 mph 21.9 mph N/A   Overcast
4:53 AM 32.0 °F 21.2 °F 25.0 °F 75% 30.33 in 10.0 mi East 16.1 mph 21.9 mph N/A   Overcast
5:11 AM 32.0 °F 20.5 °F 24.8 °F 75% 30.32 in 10.0 mi East 18.4 mph 24.2 mph N/A   Overcast
5:53 AM 33.1 °F 22.2 °F 26.1 °F 75% 30.30 in 10.0 mi East 17.3 mph 25.3 mph N/A   Overcast
6:53 AM 33.1 °F 23.0 °F 26.1 °F 75% 30.29 in 10.0 mi East 15.0 mph 29.9 mph N/A   Overcast
7:51 AM 33.8 °F 22.8 °F 26.6 °F 75% 30.26 in 10.0 mi East 18.4 mph 29.9 mph N/A   Overcast
7:53 AM 33.1 °F 21.5 °F 26.1 °F 75% 30.27 in 10.0 mi East 19.6 mph 29.9 mph N/A   Overcast
8:53 AM 34.0 °F 21.8 °F 27.0 °F 75% 30.24 in 7.0 mi East 23.0 mph 29.9 mph 0.00 in Snow Light Snow
9:04 AM 33.8 °F 22.2 °F 28.4 °F 81% 30.23 in 1.8 mi East 20.7 mph 29.9 mph 0.00 in Snow Light Snow
9:43 AM 33.8 °F 23.9 °F 30.2 °F 87% 30.22 in 1.0 mi East 15.0 mph 27.6 mph 0.00 in Snow Light Snow
9:51 AM 33.8 °F 23.5 °F 30.2 °F 87% 30.21 in 1.0 mi East 16.1 mph 24.2 mph 0.00 in Snow Light Snow
9:53 AM 33.1 °F 23.0 °F 30.9 °F 92% 30.21 in 1.0 mi East 15.0 mph 24.2 mph 0.00 in Snow Light Snow
10:01 AM 33.8 °F 22.5 °F 32.0 °F 93% 30.20 in 0.8 mi East 19.6 mph 25.3 mph 0.00 in Snow Light Snow
10:40 AM 33.8 °F 21.9 °F 32.0 °F 93% 30.16 in 1.0 mi East 21.9 mph 29.9 mph 0.01 in Snow Light Snow
10:53 AM 33.1 °F 21.2 °F 32.0 °F 96% 30.16 in 1.2 mi East 20.7 mph 27.6 mph 0.02 in Snow Light Snow
11:53 AM 33.1 °F 21.2 °F 32.0 °F 96% 30.09 in 1.2 mi East 20.7 mph 31.1 mph 0.01 in Snow Light Snow
12:53 PM 33.1 °F 21.5 °F 33.1 °F 100% 30.03 in 1.5 mi East 19.6 mph 33.4 mph 0.02 in Snow Light Snow
1:53 PM 34.0 °F 21.5 °F 33.1 °F 96% 29.96 in 2.0 mi East 24.2 mph 33.4 mph 0.03 in Snow Light Snow
2:11 PM 33.8 °F 21.3 °F 33.8 °F 100% 29.94 in 1.5 mi East 24.2 mph 35.7 mph 0.01 in Snow Light Snow
2:31 PM 33.8 °F 21.9 °F 33.8 °F 100% 29.92 in 2.0 mi East 21.9 mph 34.5 mph 0.02 in Snow Light Snow
2:53 PM 34.0 °F 20.8 °F 33.1 °F 96% 29.89 in 1.8 mi ENE 27.6 mph 35.7 mph 0.04 in Snow Light Snow
3:36 PM 33.8 °F 21.0 °F 33.8 °F 100% 29.81 in 0.8 mi ENE 25.3 mph 38.0 mph 0.02 in Snow Light Snow
3:53 PM 33.1 °F 19.8 °F 33.1 °F 100% 29.80 in 0.5 mi ENE 26.5 mph 40.3 mph 0.03 in Fog , Snow Snow
4:28 PM 33.8 °F 20.8 °F 32.0 °F 93% 29.75 in 0.2 mi ENE 26.5 mph 36.8 mph 0.03 in Fog , Snow Heavy Snow
4:38 PM 33.8 °F 20.5 °F 32.0 °F 93% 29.75 in 0.5 mi ENE 27.6 mph 40.3 mph 0.03 in Fog , Snow Snow
4:53 PM 33.1 °F 18.7 °F 32.0 °F 96% 29.73 in 0.8 mi ENE 32.2 mph 42.6 mph 0.06 in Snow Light Snow
5:18 PM 32.0 °F 16.7 °F 32.0 °F 100% 29.69 in 0.5 mi NE 34.5 mph 46.0 mph 0.03 in Fog , Snow Snow
5:45 PM 32.0 °F 17.4 °F 32.0 °F 100% 29.64 in 0.8 mi NE 31.1 mph 43.7 mph 0.04 in Snow Light Snow
5:53 PM 32.0 °F 17.4 °F 32.0 °F 100% 29.64 in 0.8 mi NE 31.1 mph 51.8 mph 0.06 in Snow Light Snow
6:01 PM 32.0 °F 17.2 °F 32.0 °F 100% 29.62 in 1.2 mi NE 32.2 mph 49.5 mph 0.01 in Snow Light Snow
6:34 PM 32.0 °F 16.3 °F 32.0 °F 100% 29.55 in 3.0 mi NE 36.8 mph 54.1 mph 0.04 in Snow Light Snow
6:51 PM 32.0 °F 16.2 °F 32.0 °F 100% 29.51 in 2.0 mi NE 38.0 mph 52.9 mph 0.07 in Snow Light Snow
6:53 PM 32.0 °F 16.0 °F 32.0 °F 100% 29.51 in 2.0 mi NE 39.1 mph 55.2 mph 0.07 in Snow Light Snow
7:08 PM 32.0 °F 16.7 °F 32.0 °F 100% 29.52 in 1.0 mi NE 34.5 mph 48.3 mph 0.02 in Snow Light Snow
7:53 PM 32.0 °F 16.0 °F 32.0 °F 100% 29.46 in 1.2 mi NE 39.1 mph 49.5 mph 0.15 in Snow Light Snow
8:53 PM 32.0 °F 16.5 °F 32.0 °F 100% 29.41 in 0.8 mi NE 35.7 mph 51.8 mph 0.16 in Snow Light Snow
9:53 PM 32.0 °F 16.0 °F 32.0 °F 100% 29.35 in 0.8 mi NNE 39.1 mph 54.1 mph 0.16 in Snow Light Snow
10:53 PM 32.0 °F 15.8 °F 32.0 °F 100% 29.29 in 0.8 mi NE 40.3 mph 54.1 mph 0.20 in Snow Light Snow
11:53 PM 30.9 °F 14.1 °F 30.9 °F 100% 29.25 in 0.8 mi NNE 41.4 mph 56.4 mph 0.17 in   Mist